TPC802 NIUE-NFTF

Flight info

Callsign TPC802
Flight time 2h 11m
Altitude 12000
Route NU A584 DALDI DALDI1B
Aircraft KODI/L-SDFGR/C

Departure

Time 2026-05-07 12:59
Airport Niue International Airport (NIUE)

Arrival

Time 2026-05-07 15:10
Airport Fua'amotu International Airport (NFTF)
Time Latitude Longitude Altitude Speed Heading
2026-05-07 12:46 -19.07736 -169.92619 192 ft 0 kts 288°
2026-05-07 12:55 -19.07746 -169.92640 204 ft 9 kts 160°
2026-05-07 12:56 -19.07770 -169.92555 192 ft 17 kts 114°
2026-05-07 12:56 -19.07875 -169.92503 204 ft 19 kts 183°
2026-05-07 12:56 -19.07955 -169.92396 194 ft 21 kts 110°
2026-05-07 12:56 -19.08011 -169.92237 196 ft 25 kts 115°
2026-05-07 12:57 -19.08068 -169.92048 190 ft 28 kts 107°
2026-05-07 12:57 -19.08116 -169.91915 188 ft 30 kts 111°
2026-05-07 12:57 -19.08195 -169.91695 193 ft 33 kts 110°
2026-05-07 12:57 -19.08265 -169.91543 197 ft 6 kts 21°
2026-05-07 12:58 -19.08228 -169.91592 189 ft 12 kts 288°
2026-05-07 12:58 -19.08166 -169.91779 190 ft 52 kts 290°
2026-05-07 12:58 -19.07998 -169.92258 237 ft 81 kts 289°
2026-05-07 12:58 -19.07793 -169.92849 421 ft 93 kts 289°
2026-05-07 12:59 -19.07862 -169.93569 668 ft 107 kts 247°
2026-05-07 12:59 -19.08361 -169.94204 918 ft 118 kts 236°
2026-05-07 12:59 -19.08888 -169.94884 1225 ft 119 kts 241°
2026-05-07 12:59 -19.09333 -169.95588 1685 ft 110 kts 244°
2026-05-07 13:00 -19.09796 -169.96198 2158 ft 104 kts 237°
2026-05-07 13:00 -19.10294 -169.96763 2526 ft 106 kts 238°
2026-05-07 13:00 -19.10756 -169.97375 2878 ft 106 kts 248°
2026-05-07 13:00 -19.11117 -169.98056 3242 ft 107 kts 254°
2026-05-07 13:01 -19.11416 -169.98787 3585 ft 110 kts 259°
2026-05-07 13:01 -19.11709 -169.99553 3900 ft 115 kts 259°
2026-05-07 13:01 -19.12025 -170.00344 4226 ft 118 kts 259°
2026-05-07 13:01 -19.12358 -170.01137 4592 ft 117 kts 258°
2026-05-07 13:02 -19.12693 -170.01916 4959 ft 116 kts 259°
2026-05-07 13:02 -19.13027 -170.02684 5340 ft 115 kts 260°
2026-05-07 13:02 -19.13364 -170.03455 5713 ft 116 kts 261°
2026-05-07 13:02 -19.13699 -170.04230 6097 ft 116 kts 261°
2026-05-07 13:03 -19.14036 -170.05007 6465 ft 116 kts 261°
2026-05-07 13:03 -19.14374 -170.05776 6821 ft 115 kts 262°
2026-05-07 13:03 -19.14708 -170.06539 7186 ft 113 kts 262°
2026-05-07 13:03 -19.15038 -170.07290 7555 ft 112 kts 262°
2026-05-07 13:04 -19.15362 -170.08029 7929 ft 110 kts 263°
2026-05-07 13:04 -19.15682 -170.08754 8303 ft 107 kts 263°
2026-05-07 13:04 -19.15995 -170.09461 8693 ft 105 kts 264°
2026-05-07 13:04 -19.16300 -170.10148 9075 ft 102 kts 264°
2026-05-07 13:05 -19.16599 -170.10821 9473 ft 100 kts 265°
2026-05-07 13:05 -19.16890 -170.11474 9859 ft 97 kts 265°
2026-05-07 13:05 -19.17174 -170.12104 10222 ft 93 kts 265°
2026-05-07 13:05 -19.17451 -170.12712 10589 ft 90 kts 265°
2026-05-07 13:06 -19.17717 -170.13295 10956 ft 86 kts 265°
2026-05-07 13:06 -19.17974 -170.13852 11324 ft 82 kts 265°
2026-05-07 13:06 -19.18222 -170.14429 11558 ft 92 kts 267°
2026-05-07 13:06 -19.18484 -170.15098 11754 ft 104 kts 267°
2026-05-07 13:07 -19.18766 -170.15828 11947 ft 113 kts 266°
2026-05-07 13:07 -19.19080 -170.16614 12140 ft 119 kts 265°
2026-05-07 13:07 -19.19418 -170.17431 12334 ft 123 kts 264°
2026-05-07 13:07 -19.19771 -170.18274 12486 ft 129 kts 264°
2026-05-07 13:08 -19.20142 -170.19188 12482 ft 140 kts 263°
2026-05-07 13:08 -19.20611 -170.20144 12493 ft 151 kts 253°
2026-05-07 13:08 -19.21103 -170.21137 12495 ft 153 kts 256°
2026-05-07 13:08 -19.21562 -170.22174 12504 ft 158 kts 257°
2026-05-07 13:09 -19.22021 -170.23241 12502 ft 160 kts 257°
2026-05-07 13:09 -19.22482 -170.24311 12497 ft 160 kts 257°
2026-05-07 13:09 -19.22945 -170.25383 12498 ft 160 kts 257°
2026-05-07 13:09 -19.23409 -170.26458 12497 ft 160 kts 257°
2026-05-07 13:10 -19.23872 -170.27531 12495 ft 161 kts 257°
2026-05-07 13:10 -19.24337 -170.28606 12499 ft 161 kts 257°
2026-05-07 13:10 -19.24801 -170.29680 12497 ft 161 kts 257°
2026-05-07 13:10 -19.25266 -170.30758 12498 ft 161 kts 257°
2026-05-07 13:11 -19.25730 -170.31833 12499 ft 161 kts 257°
2026-05-07 13:11 -19.26194 -170.32909 12501 ft 161 kts 257°
2026-05-07 13:11 -19.26658 -170.33983 12497 ft 161 kts 257°
2026-05-07 13:11 -19.27121 -170.35058 12497 ft 161 kts 257°
2026-05-07 13:12 -19.27585 -170.36133 12499 ft 160 kts 257°
2026-05-07 13:12 -19.28049 -170.37207 12499 ft 160 kts 257°
2026-05-07 13:12 -19.28512 -170.38282 12497 ft 160 kts 257°
2026-05-07 13:12 -19.28975 -170.39357 12497 ft 161 kts 257°
2026-05-07 13:13 -19.29438 -170.40431 12497 ft 161 kts 257°
2026-05-07 13:13 -19.29902 -170.41507 12503 ft 161 kts 257°
2026-05-07 13:13 -19.30365 -170.42583 12499 ft 161 kts 257°
2026-05-07 13:13 -19.30829 -170.43658 12501 ft 160 kts 257°
2026-05-07 13:14 -19.31291 -170.44732 12501 ft 160 kts 257°
2026-05-07 13:14 -19.31755 -170.45808 12501 ft 160 kts 257°
2026-05-07 13:14 -19.32217 -170.46882 12501 ft 160 kts 257°
2026-05-07 13:14 -19.32523 -170.47593 12501 ft 160 kts 257°
2026-05-07 13:15 -19.32902 -170.48474 12502 ft 160 kts 257°
2026-05-07 13:15 -19.33365 -170.49549 12499 ft 160 kts 256°
2026-05-07 13:15 -19.33827 -170.50623 12501 ft 161 kts 256°
2026-05-07 13:15 -19.34290 -170.51700 12502 ft 161 kts 256°
2026-05-07 13:16 -19.34753 -170.52776 12496 ft 161 kts 257°
2026-05-07 13:16 -19.35216 -170.53853 12498 ft 161 kts 257°
2026-05-07 13:16 -19.35679 -170.54930 12499 ft 161 kts 257°
2026-05-07 13:16 -19.36142 -170.56007 12499 ft 161 kts 256°
2026-05-07 13:17 -19.36604 -170.57083 12497 ft 161 kts 256°
2026-05-07 13:17 -19.37067 -170.58160 12499 ft 161 kts 256°
2026-05-07 13:17 -19.37530 -170.59238 12498 ft 161 kts 257°
2026-05-07 13:17 -19.37993 -170.60315 12495 ft 161 kts 257°
2026-05-07 13:18 -19.38455 -170.61393 12497 ft 161 kts 257°
2026-05-07 13:18 -19.38918 -170.62470 12499 ft 161 kts 257°
2026-05-07 13:18 -19.39381 -170.63548 12496 ft 161 kts 256°
2026-05-07 13:18 -19.39842 -170.64623 12497 ft 161 kts 256°
2026-05-07 13:19 -19.40304 -170.65701 12497 ft 160 kts 257°
2026-05-07 13:19 -19.40766 -170.66777 12494 ft 161 kts 256°
2026-05-07 13:19 -19.41228 -170.67853 12493 ft 161 kts 257°
2026-05-07 13:19 -19.41690 -170.68931 12497 ft 161 kts 256°
2026-05-07 13:20 -19.42152 -170.70008 12496 ft 161 kts 256°
2026-05-07 13:20 -19.42614 -170.71086 12495 ft 161 kts 256°
2026-05-07 13:20 -19.43075 -170.72162 12495 ft 160 kts 256°
2026-05-07 13:20 -19.43536 -170.73238 12495 ft 160 kts 257°
2026-05-07 13:21 -19.43998 -170.74316 12495 ft 160 kts 257°
2026-05-07 13:21 -19.44459 -170.75391 12495 ft 160 kts 256°
2026-05-07 13:21 -19.44920 -170.76468 12495 ft 161 kts 256°
2026-05-07 13:21 -19.45381 -170.77546 12494 ft 161 kts 257°
2026-05-07 13:22 -19.45842 -170.78623 12497 ft 161 kts 256°
2026-05-07 13:22 -19.46304 -170.79702 12494 ft 161 kts 256°
2026-05-07 13:22 -19.46766 -170.80782 12495 ft 161 kts 256°
2026-05-07 13:22 -19.47228 -170.81863 12492 ft 161 kts 256°
2026-05-07 13:23 -19.47691 -170.82944 12491 ft 161 kts 256°
2026-05-07 13:23 -19.48153 -170.84025 12493 ft 161 kts 256°
2026-05-07 13:23 -19.48615 -170.85105 12492 ft 161 kts 256°
2026-05-07 13:23 -19.49076 -170.86183 12491 ft 161 kts 256°
2026-05-07 13:24 -19.49537 -170.87262 12491 ft 160 kts 256°
2026-05-07 13:24 -19.49997 -170.88339 12494 ft 160 kts 256°
2026-05-07 13:24 -19.50457 -170.89416 12494 ft 160 kts 256°
2026-05-07 13:24 -19.50918 -170.90494 12490 ft 160 kts 256°
2026-05-07 13:25 -19.51378 -170.91572 12491 ft 161 kts 256°
2026-05-07 13:25 -19.51838 -170.92651 12491 ft 161 kts 256°
2026-05-07 13:25 -19.52300 -170.93732 12492 ft 161 kts 256°
2026-05-07 13:25 -19.52760 -170.94811 12493 ft 161 kts 256°
2026-05-07 13:26 -19.53222 -170.95890 12491 ft 161 kts 256°
2026-05-07 13:26 -19.53680 -170.96964 12492 ft 161 kts 256°
2026-05-07 13:26 -19.54140 -170.98042 12493 ft 161 kts 256°
2026-05-07 13:26 -19.54599 -170.99120 12493 ft 160 kts 256°
2026-05-07 13:27 -19.55058 -171.00196 12492 ft 160 kts 256°
2026-05-07 13:27 -19.55518 -171.01273 12492 ft 160 kts 256°
2026-05-07 13:27 -19.55977 -171.02350 12496 ft 160 kts 256°
2026-05-07 13:27 -19.56435 -171.03428 12493 ft 161 kts 256°
2026-05-07 13:28 -19.56895 -171.04508 12494 ft 161 kts 256°
2026-05-07 13:28 -19.57354 -171.05586 12492 ft 161 kts 256°
2026-05-07 13:28 -19.57814 -171.06666 12490 ft 161 kts 256°
2026-05-07 13:28 -19.58275 -171.07747 12490 ft 161 kts 256°
2026-05-07 13:29 -19.58735 -171.08827 12490 ft 161 kts 256°
2026-05-07 13:29 -19.59194 -171.09907 12489 ft 161 kts 256°
2026-05-07 13:29 -19.59653 -171.10985 12490 ft 160 kts 256°
2026-05-07 13:29 -19.60111 -171.12061 12492 ft 160 kts 256°
2026-05-07 13:30 -19.60569 -171.13136 12489 ft 160 kts 256°
2026-05-07 13:30 -19.61026 -171.14211 12489 ft 160 kts 256°
2026-05-07 13:30 -19.61484 -171.15287 12488 ft 160 kts 256°
2026-05-07 13:30 -19.61941 -171.16364 12489 ft 160 kts 256°
2026-05-07 13:31 -19.62400 -171.17442 12487 ft 160 kts 256°
2026-05-07 13:31 -19.62857 -171.18518 12490 ft 160 kts 256°
2026-05-07 13:31 -19.63316 -171.19599 12489 ft 161 kts 256°
2026-05-07 13:31 -19.63775 -171.20680 12489 ft 161 kts 256°
2026-05-07 13:32 -19.64235 -171.21762 12490 ft 161 kts 256°
2026-05-07 13:32 -19.64694 -171.22843 12490 ft 161 kts 256°
2026-05-07 13:32 -19.65152 -171.23924 12487 ft 161 kts 256°
2026-05-07 13:32 -19.65611 -171.25006 12489 ft 161 kts 256°
2026-05-07 13:33 -19.66069 -171.26085 12489 ft 160 kts 256°
2026-05-07 13:33 -19.66512 -171.27167 12491 ft 159 kts 257°
2026-05-07 13:33 -19.66958 -171.28244 12495 ft 160 kts 256°
2026-05-07 13:33 -19.67413 -171.29319 12493 ft 160 kts 256°
2026-05-07 13:34 -19.67870 -171.30397 12492 ft 160 kts 256°
2026-05-07 13:34 -19.68785 -171.32555 12494 ft 161 kts 256°
2026-05-07 13:34 -19.69243 -171.33636 12493 ft 160 kts 256°
2026-05-07 13:35 -19.69700 -171.34715 12496 ft 160 kts 256°
2026-05-07 13:35 -19.70158 -171.35795 12492 ft 160 kts 256°
2026-05-07 13:35 -19.70615 -171.36874 12493 ft 160 kts 256°
2026-05-07 13:35 -19.71072 -171.37952 12490 ft 160 kts 256°
2026-05-07 13:36 -19.71529 -171.39031 12491 ft 160 kts 256°
2026-05-07 13:36 -19.71984 -171.40108 12495 ft 160 kts 256°
2026-05-07 13:36 -19.72439 -171.41182 12493 ft 160 kts 256°
2026-05-07 13:36 -19.72894 -171.42257 12494 ft 160 kts 256°
2026-05-07 13:37 -19.73348 -171.43331 12495 ft 160 kts 256°
2026-05-07 13:37 -19.73804 -171.44407 12494 ft 160 kts 256°
2026-05-07 13:37 -19.74259 -171.45482 12496 ft 159 kts 256°
2026-05-07 13:37 -19.74712 -171.46553 12494 ft 159 kts 256°
2026-05-07 13:38 -19.75164 -171.47623 12492 ft 159 kts 256°
2026-05-07 13:38 -19.75617 -171.48695 12493 ft 159 kts 256°
2026-05-07 13:38 -19.76057 -171.49769 12496 ft 159 kts 257°
2026-05-07 13:38 -19.76496 -171.50844 12494 ft 159 kts 257°
2026-05-07 13:39 -19.76944 -171.51916 12493 ft 159 kts 256°
2026-05-07 13:39 -19.77394 -171.52987 12496 ft 159 kts 256°
2026-05-07 13:39 -19.77845 -171.54060 12498 ft 159 kts 256°
2026-05-07 13:39 -19.78297 -171.55135 12497 ft 159 kts 256°
2026-05-07 13:40 -19.78748 -171.56209 12496 ft 159 kts 256°
2026-05-07 13:40 -19.79200 -171.57284 12494 ft 159 kts 257°
2026-05-07 13:40 -19.79498 -171.57994 12498 ft 159 kts 256°
2026-05-07 13:40 -19.79950 -171.59071 12497 ft 160 kts 256°
2026-05-07 13:41 -19.80402 -171.60145 12495 ft 159 kts 256°
2026-05-07 13:41 -19.80854 -171.61222 12496 ft 159 kts 256°
2026-05-07 13:41 -19.81305 -171.62295 12498 ft 159 kts 256°
2026-05-07 13:41 -19.81755 -171.63368 12498 ft 159 kts 256°
2026-05-07 13:42 -19.82206 -171.64442 12497 ft 159 kts 256°
2026-05-07 13:42 -19.82656 -171.65514 12499 ft 159 kts 256°
2026-05-07 13:42 -19.83106 -171.66588 12494 ft 159 kts 256°
2026-05-07 13:42 -19.83555 -171.67659 12495 ft 159 kts 256°
2026-05-07 13:43 -19.84004 -171.68730 12496 ft 159 kts 256°
2026-05-07 13:43 -19.84453 -171.69800 12497 ft 159 kts 256°
2026-05-07 13:43 -19.84902 -171.70871 12497 ft 159 kts 256°
2026-05-07 13:43 -19.85351 -171.71942 12494 ft 158 kts 256°
2026-05-07 13:44 -19.85798 -171.73010 12493 ft 158 kts 256°
2026-05-07 13:44 -19.86246 -171.74079 12494 ft 158 kts 256°
2026-05-07 13:44 -19.86695 -171.75150 12494 ft 159 kts 256°
2026-05-07 13:44 -19.87143 -171.76219 12494 ft 159 kts 256°
2026-05-07 13:45 -19.87591 -171.77290 12493 ft 159 kts 256°
2026-05-07 13:45 -19.88040 -171.78362 12494 ft 158 kts 256°
2026-05-07 13:45 -19.88488 -171.79432 12495 ft 159 kts 256°
2026-05-07 13:45 -19.88936 -171.80504 12494 ft 159 kts 256°
2026-05-07 13:46 -19.89385 -171.81576 12493 ft 159 kts 256°
2026-05-07 13:46 -19.89833 -171.82647 12495 ft 159 kts 256°
2026-05-07 13:46 -19.90280 -171.83718 12494 ft 159 kts 256°
2026-05-07 13:46 -19.90728 -171.84788 12496 ft 158 kts 256°
2026-05-07 13:47 -19.91174 -171.85857 12496 ft 158 kts 256°
2026-05-07 13:47 -19.91622 -171.86927 12493 ft 158 kts 256°
2026-05-07 13:47 -19.92067 -171.87994 12495 ft 158 kts 256°
2026-05-07 13:47 -19.92513 -171.89059 12494 ft 158 kts 256°
2026-05-07 13:48 -19.92952 -171.90111 12497 ft 158 kts 256°
2026-05-07 13:48 -19.93397 -171.91176 12494 ft 158 kts 256°
2026-05-07 13:48 -19.93841 -171.92240 12497 ft 157 kts 256°
2026-05-07 13:48 -19.94286 -171.93303 12495 ft 158 kts 256°
2026-05-07 13:49 -19.94729 -171.94367 12496 ft 157 kts 257°
2026-05-07 13:49 -19.95173 -171.95431 12495 ft 157 kts 256°
2026-05-07 13:49 -19.95617 -171.96495 12494 ft 157 kts 256°
2026-05-07 13:49 -19.96061 -171.97560 12492 ft 158 kts 256°
2026-05-07 13:50 -19.96506 -171.98628 12495 ft 158 kts 256°
2026-05-07 13:50 -19.96950 -171.99692 12494 ft 157 kts 256°
2026-05-07 13:50 -19.97393 -172.00755 12493 ft 157 kts 256°
2026-05-07 13:50 -19.97836 -172.01818 12492 ft 157 kts 256°
2026-05-07 13:51 -19.98279 -172.02881 12497 ft 157 kts 256°
2026-05-07 13:51 -19.98721 -172.03944 12496 ft 157 kts 256°
2026-05-07 13:51 -19.99165 -172.05008 12496 ft 157 kts 256°
2026-05-07 13:51 -19.99607 -172.06071 12498 ft 157 kts 256°
2026-05-07 13:52 -20.00050 -172.07134 12494 ft 157 kts 256°
2026-05-07 13:52 -20.00493 -172.08198 12494 ft 157 kts 256°
2026-05-07 13:52 -20.00936 -172.09262 12494 ft 157 kts 256°
2026-05-07 13:52 -20.01379 -172.10327 12497 ft 157 kts 256°
2026-05-07 13:53 -20.01821 -172.11390 12493 ft 157 kts 256°
2026-05-07 13:53 -20.02263 -172.12452 12494 ft 157 kts 256°
2026-05-07 13:53 -20.02704 -172.13513 12496 ft 157 kts 256°
2026-05-07 13:53 -20.03146 -172.14576 12494 ft 157 kts 256°
2026-05-07 13:54 -20.03587 -172.15636 12497 ft 157 kts 256°
2026-05-07 13:54 -20.04028 -172.16697 12496 ft 157 kts 256°
2026-05-07 13:54 -20.04468 -172.17756 12495 ft 157 kts 256°
2026-05-07 13:54 -20.04908 -172.18816 12497 ft 157 kts 256°
2026-05-07 13:55 -20.05348 -172.19876 12498 ft 157 kts 256°
2026-05-07 13:55 -20.05788 -172.20935 12497 ft 157 kts 256°
2026-05-07 13:55 -20.06228 -172.21993 12498 ft 156 kts 256°
2026-05-07 13:55 -20.06667 -172.23052 12496 ft 156 kts 256°
2026-05-07 13:56 -20.07106 -172.24110 12497 ft 156 kts 256°
2026-05-07 13:56 -20.07545 -172.25168 12497 ft 156 kts 256°
2026-05-07 13:56 -20.07984 -172.26225 12495 ft 156 kts 256°
2026-05-07 13:56 -20.08422 -172.27282 12496 ft 156 kts 256°
2026-05-07 13:57 -20.08860 -172.28338 12496 ft 156 kts 256°
2026-05-07 13:57 -20.09298 -172.29395 12498 ft 156 kts 256°
2026-05-07 13:57 -20.09736 -172.30452 12496 ft 156 kts 256°
2026-05-07 13:57 -20.10174 -172.31509 12497 ft 156 kts 256°
2026-05-07 13:58 -20.10612 -172.32565 12496 ft 156 kts 256°
2026-05-07 13:58 -20.11049 -172.33620 12496 ft 156 kts 256°
2026-05-07 13:58 -20.11487 -172.34677 12499 ft 156 kts 256°
2026-05-07 13:58 -20.11924 -172.35733 12494 ft 156 kts 256°
2026-05-07 13:59 -20.12362 -172.36789 12495 ft 156 kts 256°
2026-05-07 13:59 -20.12798 -172.37845 12495 ft 156 kts 256°
2026-05-07 13:59 -20.13236 -172.38901 12495 ft 156 kts 256°
2026-05-07 13:59 -20.13673 -172.39957 12494 ft 156 kts 256°
2026-05-07 14:00 -20.14109 -172.41013 12495 ft 156 kts 256°
2026-05-07 14:00 -20.14545 -172.42066 12496 ft 156 kts 256°
2026-05-07 14:00 -20.14981 -172.43120 12494 ft 156 kts 256°
2026-05-07 14:00 -20.15411 -172.44161 12492 ft 156 kts 256°
2026-05-07 14:01 -20.15852 -172.45229 12494 ft 156 kts 256°
2026-05-07 14:01 -20.16282 -172.46267 12485 ft 155 kts 256°
2026-05-07 14:01 -20.16716 -172.47318 12486 ft 155 kts 256°
2026-05-07 14:01 -20.17149 -172.48365 12485 ft 155 kts 256°
2026-05-07 14:02 -20.17582 -172.49414 12485 ft 155 kts 256°
2026-05-07 14:02 -20.18014 -172.50461 12484 ft 155 kts 256°
2026-05-07 14:02 -20.18446 -172.51507 12485 ft 155 kts 256°
2026-05-07 14:02 -20.18879 -172.52555 12488 ft 155 kts 256°
2026-05-07 14:03 -20.19312 -172.53606 12490 ft 155 kts 256°
2026-05-07 14:03 -20.19752 -172.54672 12485 ft 155 kts 256°
2026-05-07 14:03 -20.20181 -172.55712 12485 ft 155 kts 256°
2026-05-07 14:03 -20.20615 -172.56764 12484 ft 155 kts 256°
2026-05-07 14:04 -20.21049 -172.57817 12487 ft 155 kts 256°
2026-05-07 14:04 -20.21483 -172.58870 12484 ft 155 kts 256°
2026-05-07 14:04 -20.21916 -172.59920 12488 ft 155 kts 256°
2026-05-07 14:04 -20.22349 -172.60971 12483 ft 155 kts 256°
2026-05-07 14:05 -20.22782 -172.62020 12485 ft 155 kts 256°
2026-05-07 14:05 -20.23213 -172.63067 12483 ft 154 kts 256°
2026-05-07 14:05 -20.23644 -172.64113 12483 ft 154 kts 256°
2026-05-07 14:05 -20.24074 -172.65158 12483 ft 154 kts 256°
2026-05-07 14:06 -20.24505 -172.66203 12482 ft 154 kts 256°
2026-05-07 14:06 -20.24935 -172.67247 12481 ft 154 kts 256°
2026-05-07 14:06 -20.25364 -172.68291 12485 ft 154 kts 256°
2026-05-07 14:06 -20.25794 -172.69335 12483 ft 154 kts 256°
2026-05-07 14:07 -20.26223 -172.70379 12485 ft 154 kts 256°
2026-05-07 14:07 -20.26652 -172.71423 12484 ft 154 kts 256°
2026-05-07 14:07 -20.27082 -172.72466 12486 ft 154 kts 256°
2026-05-07 14:07 -20.27509 -172.73505 12484 ft 153 kts 256°
2026-05-07 14:08 -20.27937 -172.74547 12484 ft 153 kts 256°
2026-05-07 14:08 -20.28363 -172.75584 12483 ft 153 kts 256°
2026-05-07 14:08 -20.28790 -172.76622 12486 ft 153 kts 256°
2026-05-07 14:08 -20.29215 -172.77657 12485 ft 153 kts 256°
2026-05-07 14:09 -20.29640 -172.78692 12485 ft 152 kts 256°
2026-05-07 14:09 -20.30064 -172.79725 12484 ft 152 kts 256°
2026-05-07 14:09 -20.30488 -172.80757 12484 ft 152 kts 255°
2026-05-07 14:09 -20.30913 -172.81792 12483 ft 153 kts 255°
2026-05-07 14:10 -20.31338 -172.82827 12485 ft 153 kts 255°
2026-05-07 14:10 -20.31762 -172.83861 12483 ft 152 kts 255°
2026-05-07 14:10 -20.32187 -172.84897 12484 ft 153 kts 255°
2026-05-07 14:10 -20.32612 -172.85932 12485 ft 153 kts 255°
2026-05-07 14:11 -20.33037 -172.86969 12486 ft 153 kts 255°
2026-05-07 14:11 -20.33461 -172.88003 12486 ft 152 kts 255°
2026-05-07 14:11 -20.33885 -172.89037 12486 ft 152 kts 255°
2026-05-07 14:11 -20.34308 -172.90069 12488 ft 152 kts 255°
2026-05-07 14:12 -20.34730 -172.91098 12486 ft 152 kts 255°
2026-05-07 14:12 -20.35152 -172.92128 12485 ft 152 kts 255°
2026-05-07 14:12 -20.35573 -172.93157 12485 ft 152 kts 255°
2026-05-07 14:12 -20.35995 -172.94188 12485 ft 152 kts 255°
2026-05-07 14:13 -20.36416 -172.95217 12483 ft 152 kts 255°
2026-05-07 14:13 -20.36838 -172.96248 12483 ft 152 kts 255°
2026-05-07 14:13 -20.37260 -172.97279 12482 ft 152 kts 255°
2026-05-07 14:13 -20.37682 -172.98309 12484 ft 152 kts 255°
2026-05-07 14:14 -20.38103 -172.99338 12484 ft 152 kts 255°
2026-05-07 14:14 -20.38524 -173.00368 12483 ft 151 kts 255°
2026-05-07 14:14 -20.38944 -173.01396 12485 ft 151 kts 255°
2026-05-07 14:14 -20.39365 -173.02423 12484 ft 151 kts 255°
2026-05-07 14:15 -20.39784 -173.03448 12483 ft 151 kts 255°
2026-05-07 14:15 -20.40202 -173.04472 12484 ft 150 kts 255°
2026-05-07 14:15 -20.40620 -173.05493 12483 ft 150 kts 255°
2026-05-07 14:15 -20.41037 -173.06515 12481 ft 150 kts 255°
2026-05-07 14:16 -20.41454 -173.07535 12483 ft 150 kts 255°
2026-05-07 14:16 -20.41871 -173.08556 12483 ft 150 kts 255°
2026-05-07 14:16 -20.42287 -173.09576 12484 ft 150 kts 255°
2026-05-07 14:16 -20.42704 -173.10597 12483 ft 151 kts 255°
2026-05-07 14:17 -20.43121 -173.11621 12483 ft 151 kts 255°
2026-05-07 14:17 -20.43539 -173.12645 12483 ft 151 kts 255°
2026-05-07 14:17 -20.43957 -173.13669 12485 ft 150 kts 255°
2026-05-07 14:17 -20.44374 -173.14690 12483 ft 150 kts 255°
2026-05-07 14:18 -20.44791 -173.15713 12484 ft 150 kts 255°
2026-05-07 14:18 -20.45208 -173.16736 12484 ft 150 kts 255°
2026-05-07 14:18 -20.45625 -173.17759 12484 ft 150 kts 255°
2026-05-07 14:18 -20.46041 -173.18778 12484 ft 150 kts 255°
2026-05-07 14:19 -20.46456 -173.19796 12483 ft 150 kts 255°
2026-05-07 14:19 -20.46870 -173.20814 12483 ft 149 kts 255°
2026-05-07 14:19 -20.47284 -173.21828 12484 ft 149 kts 254°
2026-05-07 14:19 -20.47698 -173.22846 12484 ft 150 kts 254°
2026-05-07 14:20 -20.48112 -173.23863 12482 ft 150 kts 255°
2026-05-07 14:20 -20.48527 -173.24883 12481 ft 150 kts 254°
2026-05-07 14:20 -20.48942 -173.25902 12482 ft 150 kts 254°
2026-05-07 14:20 -20.49357 -173.26922 12480 ft 150 kts 254°
2026-05-07 14:21 -20.49772 -173.27942 12480 ft 150 kts 254°
2026-05-07 14:21 -20.50187 -173.28962 12482 ft 150 kts 254°
2026-05-07 14:21 -20.50602 -173.29981 12478 ft 150 kts 254°
2026-05-07 14:21 -20.51016 -173.31001 12481 ft 150 kts 254°
2026-05-07 14:22 -20.51430 -173.32019 12478 ft 150 kts 254°
2026-05-07 14:22 -20.51844 -173.33038 12480 ft 150 kts 254°
2026-05-07 14:22 -20.52259 -173.34059 12481 ft 150 kts 254°
2026-05-07 14:22 -20.52533 -173.34734 12480 ft 150 kts 254°
2026-05-07 14:23 -20.53089 -173.36102 12481 ft 150 kts 254°
2026-05-07 14:23 -20.53363 -173.36778 12483 ft 150 kts 254°
2026-05-07 14:23 -20.53777 -173.37797 12481 ft 150 kts 254°
2026-05-07 14:23 -20.54191 -173.38816 12481 ft 150 kts 254°
2026-05-07 14:24 -20.54605 -173.39835 12483 ft 150 kts 254°
2026-05-07 14:24 -20.55018 -173.40854 12480 ft 150 kts 253°
2026-05-07 14:24 -20.55432 -173.41874 12484 ft 150 kts 253°
2026-05-07 14:24 -20.55846 -173.42893 12479 ft 150 kts 254°
2026-05-07 14:25 -20.56259 -173.43912 12480 ft 150 kts 253°
2026-05-07 14:25 -20.56672 -173.44931 12479 ft 150 kts 253°
2026-05-07 14:25 -20.57085 -173.45951 12482 ft 150 kts 253°
2026-05-07 14:25 -20.57499 -173.46971 12478 ft 150 kts 253°
2026-05-07 14:26 -20.57704 -173.47478 12481 ft 150 kts 253°
2026-05-07 14:26 -20.58117 -173.48496 12476 ft 150 kts 253°
2026-05-07 14:26 -20.58530 -173.49516 12475 ft 150 kts 253°
2026-05-07 14:26 -20.58943 -173.50535 12480 ft 150 kts 253°
2026-05-07 14:27 -20.59356 -173.51554 12478 ft 150 kts 253°
2026-05-07 14:27 -20.59768 -173.52571 12492 ft 149 kts 253°
2026-05-07 14:27 -20.60179 -173.53586 12493 ft 149 kts 253°
2026-05-07 14:27 -20.60589 -173.54600 12494 ft 149 kts 253°
2026-05-07 14:28 -20.60792 -173.55101 12494 ft 149 kts 253°
2026-05-07 14:28 -20.61202 -173.56114 12497 ft 149 kts 253°
2026-05-07 14:28 -20.61613 -173.57129 12496 ft 149 kts 253°
2026-05-07 14:28 -20.62023 -173.58144 12494 ft 149 kts 253°
2026-05-07 14:29 -20.62433 -173.59157 12497 ft 149 kts 253°
2026-05-07 14:29 -20.62843 -173.60171 12496 ft 149 kts 253°
2026-05-07 14:29 -20.63252 -173.61183 12497 ft 149 kts 253°
2026-05-07 14:29 -20.63662 -173.62197 12496 ft 149 kts 253°
2026-05-07 14:30 -20.64072 -173.63212 12497 ft 149 kts 253°
2026-05-07 14:30 -20.64482 -173.64228 12495 ft 149 kts 253°
2026-05-07 14:30 -20.64892 -173.65243 12497 ft 149 kts 253°
2026-05-07 14:30 -20.65297 -173.66246 12499 ft 149 kts 253°
2026-05-07 14:31 -20.65707 -173.67261 12495 ft 149 kts 252°
2026-05-07 14:31 -20.66117 -173.68277 12498 ft 149 kts 252°
2026-05-07 14:31 -20.66527 -173.69292 12497 ft 149 kts 252°
2026-05-07 14:31 -20.66937 -173.70309 12499 ft 149 kts 252°
2026-05-07 14:32 -20.67346 -173.71322 12498 ft 149 kts 252°
2026-05-07 14:32 -20.67753 -173.72333 12494 ft 148 kts 252°
2026-05-07 14:32 -20.68162 -173.73346 12495 ft 148 kts 252°
2026-05-07 14:32 -20.68570 -173.74358 12493 ft 148 kts 252°
2026-05-07 14:33 -20.68978 -173.75370 12494 ft 148 kts 252°
2026-05-07 14:33 -20.69385 -173.76380 12494 ft 148 kts 252°
2026-05-07 14:33 -20.69792 -173.77390 12494 ft 148 kts 252°
2026-05-07 14:33 -20.70200 -173.78403 12495 ft 149 kts 252°
2026-05-07 14:34 -20.70609 -173.79417 12492 ft 149 kts 252°
2026-05-07 14:34 -20.71017 -173.80431 12494 ft 149 kts 252°
2026-05-07 14:34 -20.71426 -173.81446 12495 ft 149 kts 252°
2026-05-07 14:34 -20.71834 -173.82459 12493 ft 148 kts 252°
2026-05-07 14:35 -20.72241 -173.83471 12493 ft 148 kts 252°
2026-05-07 14:35 -20.72648 -173.84483 12497 ft 148 kts 252°
2026-05-07 14:35 -20.73055 -173.85494 12496 ft 148 kts 252°
2026-05-07 14:35 -20.73460 -173.86502 12495 ft 148 kts 252°
2026-05-07 14:36 -20.73807 -173.87529 12495 ft 147 kts 256°
2026-05-07 14:36 -20.74092 -173.88569 12494 ft 145 kts 261°
2026-05-07 14:36 -20.74409 -173.89601 12495 ft 147 kts 254°
2026-05-07 14:36 -20.74760 -173.90609 12496 ft 147 kts 255°
2026-05-07 14:37 -20.75169 -173.91614 12499 ft 150 kts 246°
2026-05-07 14:37 -20.76214 -173.93539 12498 ft 150 kts 246°
2026-05-07 14:37 -20.76731 -173.94508 12499 ft 150 kts 246°
2026-05-07 14:38 -20.77250 -173.95476 12500 ft 150 kts 246°
2026-05-07 14:38 -20.77769 -173.96445 12501 ft 150 kts 246°
2026-05-07 14:38 -20.78285 -173.97409 12501 ft 150 kts 246°
2026-05-07 14:38 -20.78813 -173.98393 12499 ft 150 kts 246°
2026-05-07 14:39 -20.79324 -173.99347 12500 ft 150 kts 246°
2026-05-07 14:39 -20.79842 -174.00314 12499 ft 150 kts 246°
2026-05-07 14:39 -20.80365 -174.01291 12492 ft 150 kts 246°
2026-05-07 14:39 -20.80887 -174.02269 12426 ft 153 kts 246°
2026-05-07 14:40 -20.81419 -174.03267 12329 ft 156 kts 246°
2026-05-07 14:40 -20.81961 -174.04279 12226 ft 158 kts 246°
2026-05-07 14:40 -20.82505 -174.05303 12122 ft 159 kts 246°
2026-05-07 14:40 -20.83055 -174.06332 12016 ft 160 kts 246°
2026-05-07 14:41 -20.83606 -174.07363 11908 ft 160 kts 246°
2026-05-07 14:41 -20.84159 -174.08397 11802 ft 160 kts 246°
2026-05-07 14:41 -20.84713 -174.09434 11695 ft 160 kts 246°
2026-05-07 14:41 -20.85267 -174.10469 11597 ft 161 kts 246°
2026-05-07 14:42 -20.85821 -174.11506 11485 ft 161 kts 246°
2026-05-07 14:42 -20.86376 -174.12543 11375 ft 161 kts 246°
2026-05-07 14:42 -20.86931 -174.13583 11272 ft 161 kts 246°
2026-05-07 14:42 -20.87479 -174.14610 11164 ft 161 kts 246°
2026-05-07 14:43 -20.88035 -174.15651 11057 ft 161 kts 246°
2026-05-07 14:43 -20.88592 -174.16694 10951 ft 162 kts 245°
2026-05-07 14:43 -20.89157 -174.17751 10843 ft 162 kts 246°
2026-05-07 14:43 -20.89714 -174.18796 10736 ft 162 kts 246°
2026-05-07 14:44 -20.90271 -174.19840 10629 ft 162 kts 245°
2026-05-07 14:44 -20.90827 -174.20883 10519 ft 161 kts 245°
2026-05-07 14:44 -20.91377 -174.21914 10413 ft 161 kts 245°
2026-05-07 14:44 -20.91941 -174.22970 10308 ft 162 kts 246°
2026-05-07 14:45 -20.92498 -174.24014 10204 ft 162 kts 246°
2026-05-07 14:45 -20.93048 -174.25045 10097 ft 162 kts 246°
2026-05-07 14:45 -20.93611 -174.26102 9989 ft 162 kts 246°
2026-05-07 14:45 -20.94169 -174.27148 9881 ft 162 kts 246°
2026-05-07 14:46 -20.94727 -174.28197 9771 ft 162 kts 246°
2026-05-07 14:46 -20.95286 -174.29246 9660 ft 162 kts 246°
2026-05-07 14:46 -20.95843 -174.30293 9553 ft 162 kts 246°
2026-05-07 14:46 -20.96400 -174.31339 9434 ft 161 kts 245°
2026-05-07 14:47 -20.96955 -174.32380 9327 ft 161 kts 245°
2026-05-07 14:47 -20.97509 -174.33421 9228 ft 161 kts 245°
2026-05-07 14:47 -20.98056 -174.34448 9122 ft 161 kts 245°
2026-05-07 14:47 -20.98609 -174.35488 9019 ft 161 kts 245°
2026-05-07 14:48 -20.99162 -174.36526 8903 ft 161 kts 245°
2026-05-07 14:48 -20.99715 -174.37565 8802 ft 161 kts 245°
2026-05-07 14:48 -21.00274 -174.38617 8692 ft 161 kts 245°
2026-05-07 14:48 -21.00818 -174.39641 8590 ft 160 kts 244°
2026-05-07 14:49 -21.01370 -174.40679 8483 ft 160 kts 244°
2026-05-07 14:49 -21.01742 -174.41379 8410 ft 160 kts 244°
2026-05-07 14:49 -21.02194 -174.42230 8326 ft 160 kts 244°
2026-05-07 14:49 -21.02745 -174.43268 8220 ft 160 kts 244°
2026-05-07 14:50 -21.03296 -174.44305 8110 ft 161 kts 244°
2026-05-07 14:50 -21.03848 -174.45343 8002 ft 160 kts 244°
2026-05-07 14:50 -21.04398 -174.46379 7898 ft 160 kts 244°
2026-05-07 14:50 -21.04947 -174.47413 7796 ft 160 kts 244°
2026-05-07 14:51 -21.05496 -174.48447 7688 ft 160 kts 243°
2026-05-07 14:51 -21.06046 -174.49484 7584 ft 160 kts 243°
2026-05-07 14:51 -21.06596 -174.50520 7477 ft 160 kts 243°
2026-05-07 14:51 -21.07144 -174.51553 7369 ft 160 kts 243°
2026-05-07 14:52 -21.07692 -174.52587 7263 ft 160 kts 243°
2026-05-07 14:52 -21.08240 -174.53619 7156 ft 160 kts 242°
2026-05-07 14:52 -21.08788 -174.54653 7053 ft 160 kts 242°
2026-05-07 14:52 -21.09337 -174.55686 6945 ft 160 kts 242°
2026-05-07 14:53 -21.09884 -174.56721 6841 ft 160 kts 242°
2026-05-07 14:53 -21.10432 -174.57754 6740 ft 159 kts 242°
2026-05-07 14:53 -21.10980 -174.58786 6634 ft 159 kts 242°
2026-05-07 14:53 -21.11526 -174.59818 6530 ft 159 kts 242°
2026-05-07 14:54 -21.12073 -174.60851 6422 ft 159 kts 242°
2026-05-07 14:54 -21.12619 -174.61882 6320 ft 159 kts 242°
2026-05-07 14:54 -21.13165 -174.62913 6209 ft 159 kts 241°
2026-05-07 14:54 -21.13712 -174.63945 6101 ft 159 kts 241°
2026-05-07 14:55 -21.14259 -174.64978 5999 ft 160 kts 241°
2026-05-07 14:55 -21.14807 -174.66014 5888 ft 160 kts 241°
2026-05-07 14:55 -21.15355 -174.67050 5782 ft 160 kts 241°
2026-05-07 14:55 -21.15904 -174.68088 5674 ft 160 kts 241°
2026-05-07 14:56 -21.16452 -174.69123 5568 ft 160 kts 241°
2026-05-07 14:56 -21.16999 -174.70158 5466 ft 159 kts 241°
2026-05-07 14:56 -21.17542 -174.71185 5354 ft 158 kts 241°
2026-05-07 14:56 -21.18081 -174.72206 5260 ft 157 kts 241°
2026-05-07 14:57 -21.18619 -174.73223 5150 ft 157 kts 241°
2026-05-07 14:57 -21.19156 -174.74240 5051 ft 157 kts 241°
2026-05-07 14:57 -21.19693 -174.75256 4944 ft 157 kts 240°
2026-05-07 14:57 -21.20230 -174.76272 4843 ft 157 kts 240°
2026-05-07 14:58 -21.20771 -174.77296 4735 ft 158 kts 240°
2026-05-07 14:58 -21.21313 -174.78323 4630 ft 158 kts 240°
2026-05-07 14:58 -21.21852 -174.79343 4527 ft 155 kts 241°
2026-05-07 14:58 -21.22373 -174.80331 4428 ft 149 kts 240°
2026-05-07 14:59 -21.22881 -174.81290 4332 ft 147 kts 240°
2026-05-07 14:59 -21.23382 -174.82237 4235 ft 146 kts 240°
2026-05-07 14:59 -21.23882 -174.83183 4140 ft 146 kts 240°
2026-05-07 14:59 -21.24379 -174.84124 4046 ft 145 kts 240°
2026-05-07 15:00 -21.24874 -174.85064 3948 ft 145 kts 240°
2026-05-07 15:00 -21.25362 -174.85989 3855 ft 145 kts 240°
2026-05-07 15:00 -21.25860 -174.86934 3759 ft 146 kts 240°
2026-05-07 15:00 -21.26359 -174.87880 3662 ft 146 kts 240°
2026-05-07 15:01 -21.26858 -174.88828 3567 ft 146 kts 240°
2026-05-07 15:01 -21.27355 -174.89772 3467 ft 145 kts 240°
2026-05-07 15:01 -21.27848 -174.90707 3369 ft 144 kts 240°
2026-05-07 15:01 -21.28340 -174.91636 3269 ft 143 kts 237°
2026-05-07 15:02 -21.28944 -174.92479 3189 ft 144 kts 231°
2026-05-07 15:02 -21.29575 -174.93331 3092 ft 148 kts 233°
2026-05-07 15:02 -21.30205 -174.94197 2988 ft 147 kts 233°
2026-05-07 15:02 -21.30834 -174.95053 2888 ft 146 kts 233°
2026-05-07 15:03 -21.31461 -174.95904 2794 ft 145 kts 233°
2026-05-07 15:03 -21.32078 -174.96759 2698 ft 145 kts 236°
2026-05-07 15:03 -21.32515 -174.97730 2607 ft 146 kts 249°
2026-05-07 15:03 -21.32707 -174.98813 2501 ft 150 kts 262°
2026-05-07 15:04 -21.32618 -174.99944 2407 ft 154 kts 276°
2026-05-07 15:04 -21.32237 -175.01026 2310 ft 157 kts 291°
2026-05-07 15:04 -21.31645 -175.02023 2204 ft 158 kts 294°
2026-05-07 15:04 -21.31064 -175.03024 2106 ft 158 kts 294°
2026-05-07 15:05 -21.30481 -175.04032 1999 ft 159 kts 293°
2026-05-07 15:05 -21.29893 -175.05046 1894 ft 161 kts 294°
2026-05-07 15:05 -21.29294 -175.06066 1792 ft 159 kts 294°
2026-05-07 15:05 -21.28740 -175.06985 1609 ft 137 kts 293°
2026-05-07 15:06 -21.28259 -175.07812 1429 ft 126 kts 292°
2026-05-07 15:06 -21.27810 -175.08595 1270 ft 121 kts 293°
2026-05-07 15:06 -21.27395 -175.09295 1136 ft 94 kts 293°
2026-05-07 15:06 -21.27020 -175.09754 1060 ft 80 kts 301°
2026-05-07 15:07 -21.26514 -175.10042 1130 ft 83 kts 322°
2026-05-07 15:07 -21.26149 -175.10163 1162 ft 83 kts 323°
2026-05-07 15:07 -21.25608 -175.10350 1205 ft 82 kts 322°
2026-05-07 15:07 -21.24788 -175.10437 1318 ft 98 kts 348°
2026-05-07 15:08 -21.24088 -175.10393 1370 ft 97 kts 340°
2026-05-07 15:08 -21.23515 -175.10649 1262 ft 82 kts 305°
2026-05-07 15:08 -21.23167 -175.11074 1142 ft 74 kts 282°
2026-05-07 15:08 -21.23045 -175.11409 1078 ft 68 kts 275°
2026-05-07 15:09 -21.22929 -175.11854 936 ft 60 kts 269°
2026-05-07 15:09 -21.22845 -175.12367 843 ft 76 kts 270°
2026-05-07 15:09 -21.22733 -175.12941 753 ft 82 kts 274°
2026-05-07 15:09 -21.22702 -175.13519 641 ft 67 kts 236°
2026-05-07 15:10 -21.23037 -175.13796 424 ft 60 kts 193°
2026-05-07 15:10 -21.23499 -175.13845 254 ft 77 kts 189°
2026-05-07 15:10 -21.23993 -175.13870 91 ft 58 kts 181°
2026-05-07 15:10 -21.24304 -175.13884 89 ft 30 kts 201°
2026-05-07 15:11 -21.24374 -175.13884 89 ft 10 kts 147°
2026-05-07 15:11 -21.24390 -175.13802 89 ft 11 kts 65°
2026-05-07 15:11 -21.24406 -175.13745 91 ft 3 kts 181°
2026-05-07 15:11 -21.24426 -175.13745 92 ft 0 kts 179°